Probability
3 3 0 0 0 0 0 0 0 0 0 0 0 0 0 0 0 0 0 0 0 0 0 3 6 13 13 6 6 6 6 3 3 3 3 3 3 3 3 3 3 0 0
3 3 0 0 0 0 0 0 0 0 0 0 0 0 0 0 0 0 0 0 0 0 0 3 3 3 6 6 10 3 3 3 3 3 3 3 3 3 3 3 3 3 0
0 0 3 0 0 0 0 0 0 0 0 0 0 0 0 0 0 0 0 0 0 0 0 0 3 3 3 6 3 3 3 3 3 3 3 3 3 3 3 3 3 3 3
3 3 3 0 0 0 0 0 0 0 0 0 0 0 0 0 0 0 0 0 0 0 0 0 0 3 6 3 0 0 0 0 0 0 3 0 0 0 0 0 3 0 0
0 0 3 0 0 0 0 0 0 0 0 0 0 0 0 0 0 0 0 0 0 0 0 0 0 0 0 0 0 0 3 0 0 0 3 3 3 0 0 0 0 0 0
0 0 0 0 0 0 0 0 0 0 0 0 0 0 0 0 0 0 0 0 0 0 0 0 0 0 0 0 0 0 0 0 0 0 3 3 3 0 0 0 0 0 0
0 0 0 0 0 0 0 0 0 0 0 0 0 0 0 0 0 0 0 0 0 0 0 0 0 0 0 0 0 0 0 0 0 0 0 3 3 3 0 0 0 0 0
0 0 0 0 0 0 0 0 0 0 0 0 0 0 0 0 0 0 0 0 0 0 0 0 0 0 0 0 0 0 0 0 3 3 3 3 3 3 3 3 3 0 0
0 0 0 0 0 0 0 0 0 0 0 0 0 0 0 0 0 0 0 0 0 0 0 0 0 0 0 0 0 0 0 0 0 0 3 3 3 0 0 0 0 0 0
0 0 0 0 0 0 0 0 0 0 0 0 0 0 0 0 0 0 0 0 0 0 0 0 0 0 0 0 0 0 0 0 0 0 0 0 0 0 0 0 0 0 0
0 0 0 0 0 0 0 0 0 0 0 0 0 0 0 0 0 0 0 0 0 0 0 0 0 0 0 0 0 0 0 0 0 0 0 0 0 0 0 0 0 0 0
0 0 0 0 0 0 0 0 0 0 0 0 0 0 0 0 0 0 0 0 0 0 0 0 0 0 0 0 0 0 0 0 0 0 0 0 0 0 0 0 0 0 0
0 0 0 0 0 0 0 0 0 0 0 0 0 0 0 0 0 0 0 0 0 0 0 0 0 0 0 0 0 0 0 0 0 0 0 0 0 0 0 0 0 0 0
0 0 0 0 0 0 0 0 0 0 0 0 0 0 0 0 0 0 0 0 0 0 0 0 0 0 0 0 0 0 0 0 0 0 0 0 0 0 0 0 0 0 0
0 0 0 0 0 0 0 0 0 0 0 0 0 0 0 0 0 0 0 0 0 0 0 0 0 0 0 0 0 0 0 0 0 0 0 0 0 0 0 0 0 0 0
0 0 0 0 0 0 0 0 0 0 0 0 0 0 0 0 0 0 0 0 0 0 0 0 0 0 0 0 0 0 0 0 0 0 0 0 0 0 0 0 0 0 0
0 0 0 0 0 0 0 0 0 0 0 0 0 0 0 0 0 0 0 0 0 0 0 0 0 0 0 0 0 0 0 0 0 0 0 0 0 0 0 0 0 0 0
0 0 0 0 0 0 0 0 0 0 0 0 0 0 0 0 0 0 0 0 0 0 0 0 0 0 0 0 0 0 0 0 0 0 0 0 0 0 0 0 0 0 0
0 0 0 0 0 0 0 0 0 0 0 0 0 0 0 0 0 0 0 0 0 0 0 0 0 0 0 0 0 0 0 0 0 0 0 0 0 0 0 0 0 0 0
0 0 0 0 0 0 0 0 0 0 0 0 0 0 0 0 0 0 0 0 0 0 0 0 0 0 0 0 0 0 0 0 0 0 0 0 0 0 0 0 0 0 0
0 0 0 0 0 0 0 0 0 0 0 0 0 0 0 0 0 0 0 0 0 0 0 0 0 0 0 0 0 0 0 0 0 0 0 0 0 0 0 0 0 0 0
0 0 0 0 0 0 0 0 0 0 0 0 0 0 0 0 0 0 0 0 0 0 0 0 0 0 0 0 0 0 0 0 0 0 0 0 0 0 0 0 0 0 0
0 0 0 0 0 0 0 0 0 0 0 0 0 0 0 0 0 0 0 0 0 0 0 0 0 0 0 0 0 0 0 0 0 0 0 0 0 0 0 0 0 0 0
0 0 0 0 0 0 0 0 0 0 0 0 0 0 0 0 0 0 0 0 0 0 0 0 0 0 0 0 0 0 0 0 0 0 0 0 0 0 0 0 0 0 0
0 0 0 0 0 0 0 0 0 0 0 0 0 0 0 0 0 0 0 0 0 0 0 0 0 0 0 0 0 0 0 0 0 0 0 0 0 0 0 0 0 0 0
0 0 0 0 0 0 0 0 0 0 0 0 0 0 0 0 0 0 0 0 0 0 0 0 0 0 0 0 0 0 0 0 0 0 0 0 0 0 0 0 0 0 0
Height
5825 5827 5829 5831 5833 5835 5837 5838 5839 5840 5842 5843 5844 5845 5846 5847 5848 5849 5849 5850 5850 5851 5852 5852 5852 5852 5853 5853 5852 5852 5852 5852 5852 5851 5851 5850 5850 5849 5848 5847 5846 5845 5843
5820 5823 5825 5827 5829 5831 5833 5834 5836 5837 5838 5840 5841 5842 5843 5844 5844 5845 5846 5846 5847 5847 5848 5848 5848 5849 5849 5849 5849 5848 5848 5848 5848 5847 5847 5846 5846 5845 5844 5843 5842 5840 5839
5816 5818 5821 5823 5825 5827 5829 5830 5832 5833 5834 5836 5837 5838 5839 5840 5841 5841 5842 5843 5843 5844 5844 5844 5845 5845 5845 5845 5845 5844 5844 5844 5844 5843 5842 5842 5841 5840 5839 5838 5837 5836 5835
5810 5813 5816 5818 5820 5822 5824 5826 5827 5829 5830 5832 5833 5834 5835 5836 5837 5838 5838 5839 5839 5840 5840 5840 5840 5840 5841 5840 5840 5840 5840 5839 5839 5838 5838 5837 5836 5836 5835 5834 5832 5831 5830
5804 5807 5810 5813 5815 5817 5819 5821 5823 5824 5826 5827 5829 5830 5831 5832 5833 5834 5834 5835 5835 5835 5836 5836 5836 5836 5836 5836 5835 5835 5835 5835 5834 5833 5833 5832 5831 5830 5829 5828 5827 5826 5825
5798 5801 5804 5807 5809 5812 5814 5816 5818 5819 5821 5823 5824 5825 5826 5827 5828 5829 5830 5830 5831 5831 5831 5831 5831 5831 5831 5831 5830 5830 5830 5829 5829 5828 5827 5826 5826 5825 5824 5823 5821 5820 5819
5791 5795 5798 5801 5803 5806 5808 5811 5812 5814 5816 5817 5819 5820 5821 5822 5823 5824 5825 5825 5826 5826 5826 5826 5826 5826 5826 5826 5825 5825 5824 5823 5823 5822 5821 5820 5820 5819 5818 5817 5816 5814 5813
5785 5788 5791 5794 5797 5800 5802 5804 5807 5808 5810 5812 5813 5814 5816 5818 5818 5819 5819 5820 5820 5820 5821 5821 5821 5821 5820 5820 5819 5819 5818 5817 5816 5816 5815 5814 5813 5813 5812 5810 5809 5808 5806
5777 5780 5783 5787 5790 5793 5795 5798 5800 5802 5804 5806 5807 5809 5810 5811 5812 5813 5813 5814 5814 5815 5815 5815 5815 5815 5814 5814 5813 5813 5812 5811 5810 5809 5808 5808 5807 5806 5805 5803 5802 5801 5799
5769 5772 5776 5779 5782 5785 5788 5791 5793 5795 5797 5799 5800 5802 5804 5805 5806 5807 5808 5808 5808 5809 5809 5809 5809 5808 5808 5808 5807 5806 5805 5804 5803 5802 5802 5801 5800 5799 5798 5796 5795 5793 5792
5760 5764 5767 5771 5775 5778 5780 5783 5785 5788 5790 5791 5793 5795 5796 5797 5799 5800 5801 5801 5802 5802 5802 5802 5802 5802 5801 5801 5800 5800 5799 5798 5797 5796 5795 5794 5792 5791 5790 5788 5787 5785 5784
5750 5754 5759 5762 5766 5769 5772 5775 5777 5779 5782 5783 5785 5787 5788 5790 5791 5792 5793 5794 5794 5795 5795 5795 5795 5795 5794 5794 5793 5792 5792 5791 5790 5789 5787 5786 5785 5783 5782 5780 5779 5777 5775
5741 5745 5749 5753 5757 5760 5763 5766 5768 5771 5773 5775 5777 5779 5780 5781 5783 5784 5785 5786 5787 5787 5787 5788 5787 5787 5787 5787 5786 5785 5784 5783 5782 5781 5780 5778 5777 5775 5774 5772 5770 5769 5767
5731 5735 5739 5743 5747 5750 5753 5756 5759 5762 5764 5766 5768 5770 5771 5773 5774 5775 5776 5777 5778 5779 5779 5779 5779 5779 5779 5778 5778 5777 5776 5775 5774 5773 5771 5770 5768 5767 5765 5763 5761 5760 5758
5720 5725 5729 5733 5737 5740 5744 5747 5749 5752 5755 5757 5759 5760 5762 5763 5765 5766 5767 5768 5769 5770 5771 5771 5770 5770 5770 5770 5769 5768 5768 5766 5765 5764 5762 5761 5759 5758 5756 5754 5752 5750 5748
5710 5714 5718 5723 5726 5730 5733 5736 5740 5742 5745 5747 5749 5751 5753 5754 5755 5756 5757 5758 5759 5760 5761 5761 5761 5761 5761 5760 5760 5759 5758 5757 5756 5754 5753 5752 5750 5748 5746 5744 5742 5740 5738
5699 5704 5708 5712 5716 5719 5723 5726 5730 5733 5735 5737 5739 5741 5743 5744 5745 5746 5747 5748 5749 5749 5750 5751 5751 5751 5751 5750 5750 5749 5748 5747 5746 5744 5743 5741 5740 5738 5736 5733 5731 5729 5727
5688 5692 5697 5701 5705 5709 5712 5716 5719 5722 5725 5727 5729 5731 5733 5734 5735 5736 5737 5737 5738 5738 5739 5740 5741 5740 5740 5740 5739 5739 5738 5737 5735 5734 5732 5730 5729 5727 5724 5722 5720 5717 5715
5676 5681 5686 5690 5694 5698 5702 5705 5708 5711 5714 5717 5719 5720 5722 5723 5724 5725 5726 5727 5727 5728 5728 5729 5729 5729 5729 5729 5728 5728 5727 5725 5724 5722 5720 5719 5717 5715 5712 5710 5708 5705 5703
5665 5670 5674 5679 5683 5687 5690 5694 5697 5700 5703 5705 5707 5709 5711 5712 5713 5714 5715 5716 5716 5716 5717 5717 5718 5718 5718 5717 5716 5716 5715 5714 5712 5711 5709 5707 5705 5702 5700 5698 5695 5693 5690
5653 5657 5662 5666 5671 5675 5679 5682 5685 5689 5691 5694 5696 5698 5700 5701 5702 5703 5704 5705 5705 5705 5705 5706 5706 5706 5706 5705 5705 5704 5703 5702 5700 5698 5696 5694 5692 5690 5687 5684 5682 5679 5677
5640 5645 5650 5654 5659 5663 5667 5670 5674 5677 5680 5682 5684 5686 5688 5690 5691 5692 5693 5693 5694 5694 5694 5694 5694 5694 5693 5693 5692 5691 5690 5689 5688 5686 5684 5682 5679 5677 5674 5671 5668 5665 5662
5628 5633 5637 5642 5646 5651 5655 5658 5661 5665 5668 5670 5673 5675 5677 5678 5679 5680 5681 5681 5681 5681 5682 5682 5682 5681 5681 5680 5679 5679 5677 5676 5675 5673 5671 5669 5666 5663 5660 5657 5654 5651 5648
5616 5620 5625 5630 5634 5638 5642 5646 5649 5652 5656 5658 5661 5663 5665 5666 5667 5668 5668 5669 5669 5669 5669 5669 5670 5669 5668 5667 5667 5666 5664 5663 5662 5659 5657 5655 5652 5650 5647 5643 5640 5637 5634
5603 5608 5613 5617 5622 5626 5630 5633 5637 5640 5644 5646 5649 5651 5652 5653 5654 5655 5656 5656 5657 5657 5657 5657 5657 5656 5655 5654 5653 5652 5651 5650 5649 5646 5643 5641 5638 5636 5633 5630 5626 5622 5619
5591 5596 5601 5605 5609 5613 5617 5621 5625 5628 5631 5634 5636 5638 5639 5640 5641 5642 5643 5644 5644 5644 5644 5644 5644 5643 5642 5641 5640 5639 5637 5636 5634 5633 5629 5626 5624 5620 5620 5617 5613 5609 5605
Wind_Speed
24 24 23 22 22 21 20 18 18 17 17 17 17 16 16 17 17 17 17 17 17 17 18 17 17 17 17 17 17 17 18 18 18 18 19 19 20 20 20 20 20 20 20
26 25 25 24 23 22 21 20 19 18 18 18 17 17 17 17 17 17 17 17 17 18 19 18 18 19 19 19 19 19 19 19 20 20 20 21 21 21 21 21 21 22 22
27 26 26 25 24 23 23 21 21 20 19 19 19 19 19 18 18 18 17 17 18 19 19 19 19 19 20 20 20 20 21 21 21 22 22 22 22 22 22 23 23 23 23
29 28 27 26 25 25 24 23 22 21 21 20 20 20 20 19 18 18 19 19 19 19 20 20 20 21 21 22 22 22 23 23 23 23 24 24 24 24 24 24 25 25 25
30 29 28 27 26 25 25 25 24 23 23 22 22 21 21 21 20 20 20 20 20 21 21 21 21 22 23 23 23 23 23 23 24 25 25 25 25 25 26 26 26 27 27
32 31 30 29 28 27 26 26 25 24 24 24 24 23 23 22 22 22 22 22 21 22 21 22 22 23 24 24 24 24 24 25 25 26 27 27 27 27 27 27 28 28 28
34 33 32 31 30 29 28 28 27 26 26 25 25 25 24 24 24 24 25 24 24 24 24 23 23 24 24 25 25 25 26 26 27 27 27 27 27 28 28 29 29 29 29
36 35 34 33 32 31 30 30 29 28 27 27 27 27 26 26 26 26 26 25 25 25 25 25 24 24 25 25 26 26 27 27 28 28 28 28 28 29 29 30 30 30 31
38 38 37 35 34 33 32 32 31 31 30 29 28 28 28 27 26 26 26 26 26 25 25 25 25 25 26 26 26 27 28 28 28 29 29 30 30 30 30 31 31 32 32
41 40 39 38 36 36 35 34 34 33 32 31 31 30 30 29 28 27 27 27 27 27 26 26 26 27 27 27 27 28 29 29 30 30 31 31 32 32 32 33 33 33 33
43 41 40 39 38 38 37 37 36 35 34 33 33 32 32 31 30 30 29 29 29 29 29 28 28 29 28 29 29 30 30 31 31 31 32 32 33 33 34 34 34 34 34
44 42 41 41 40 39 39 38 38 37 36 35 35 34 34 33 32 32 31 30 30 30 31 30 30 30 30 30 30 31 31 32 32 32 32 33 33 34 35 35 34 35 36
45 44 43 42 41 41 40 39 39 38 37 37 36 36 36 35 35 34 33 33 33 32 32 32 32 32 31 31 31 32 33 33 33 33 34 34 34 35 35 36 36 37 37
46 46 45 44 43 42 41 40 40 39 38 38 37 37 37 37 36 36 36 35 35 34 34 34 34 34 34 33 33 34 34 34 35 35 36 36 36 36 36 37 37 37 38
46 46 46 46 45 44 43 42 41 40 40 39 38 38 37 37 37 37 37 37 37 36 36 36 36 36 36 35 35 36 36 36 36 37 37 37 37 37 38 39 39 39 39
48 47 46 46 46 45 44 43 41 40 40 40 39 39 38 38 38 38 38 38 38 38 38 37 37 37 37 37 37 38 38 38 38 38 39 39 39 39 40 41 41 41 41
49 48 48 46 45 45 44 43 42 42 41 41 40 40 39 39 40 40 40 40 40 40 40 39 39 39 39 39 39 39 39 39 40 40 40 41 41 41 42 42 42 43 43
49 48 48 47 46 45 45 45 44 43 42 42 42 41 41 41 41 41 41 41 41 41 41 41 41 41 41 41 40 40 40 41 41 41 42 42 42 43 43 44 44 44 44
50 48 48 47 47 47 46 45 45 44 44 43 42 41 41 41 41 41 41 42 42 42 42 42 42 42 42 42 42 42 42 43 44 44 44 44 44 45 45 45 46 46 46
51 50 49 49 48 48 47 47 46 46 44 43 42 42 42 42 42 42 42 42 42 42 43 43 43 43 42 43 44 44 45 45 45 45 45 46 46 46 46 47 47 48 48
51 50 50 50 49 48 48 48 48 47 46 45 44 44 43 43 43 43 43 43 43 43 44 44 45 44 44 44 45 46 46 46 46 46 46 46 47 47 48 49 49 50 50
50 50 50 50 49 49 49 48 48 48 47 46 45 45 45 45 44 44 44 44 44 45 45 45 45 45 45 45 46 46 46 46 45 46 47 47 48 48 49 50 50 51 51
51 51 50 50 50 50 50 49 49 48 48 47 47 46 46 46 45 45 45 45 46 46 47 47 46 46 46 46 46 46 46 47 47 47 47 48 49 49 50 51 51 51 51
52 51 50 50 50 50 50 50 49 48 48 47 46 46 46 45 45 46 46 46 47 47 48 47 47 47 47 47 47 47 47 48 48 48 49 49 49 50 50 51 51 51 51
50 50 49 49 49 49 49 49 49 48 48 48 47 47 47 47 47 48 47 46 46 47 47 47 47 47 47 48 48 48 48 49 49 50 50 50 50 51 50 50 51 51 51
49 48 48 49 49 48 49 49 49 49 48 48 48 48 48 48 48 47 46 46 46 46 46 47 47 48 48 49 50 50 51 51 51 51 52 52 52 52 50 50 50 51 51
Wind_Direction
238 239 239 242 243 244 246 248 248 249 249 252 255 258 260 263 266 265 267 266 265 267 269 269 271 274 276 277 277 279 280 280 282 284 286 288 289 291 292 293 294 294 296
239 240 240 242 243 244 245 247 248 249 250 253 257 260 261 262 265 267 267 267 268 269 269 270 272 275 276 278 278 279 279 281 282 284 286 288 289 290 291 292 292 293 294
239 240 242 243 242 243 246 247 248 249 251 254 257 260 263 263 265 267 268 268 269 269 270 271 273 274 276 277 279 280 279 281 283 284 285 287 289 289 291 290 291 293 293
239 240 241 242 242 244 246 247 250 250 252 255 258 260 262 262 265 267 269 270 270 270 271 272 273 274 277 279 279 280 281 281 283 284 284 285 286 288 289 290 290 291 293
239 239 241 242 242 244 247 248 249 251 252 255 258 260 261 261 264 267 269 271 272 272 271 272 273 275 278 280 281 281 282 283 283 284 284 285 286 287 288 289 290 290 291
238 239 240 242 243 245 248 249 249 252 253 256 257 260 261 261 263 265 267 270 272 273 272 273 274 276 278 281 282 282 283 284 284 284 285 285 286 287 288 289 290 291 291
238 239 240 242 244 247 249 250 251 251 254 256 258 260 262 262 263 265 267 269 272 273 273 275 277 279 279 280 282 283 284 284 285 285 286 287 287 287 288 289 289 290 291
239 239 240 242 244 247 249 251 252 252 255 257 259 261 263 263 264 266 267 269 272 273 274 276 278 279 280 280 281 283 284 285 286 285 286 286 287 288 289 289 289 290 290
240 240 241 242 244 246 249 251 253 254 256 257 259 261 262 263 265 266 268 269 271 273 275 276 277 279 280 280 281 283 284 284 285 286 286 286 287 289 291 289 288 289 290
240 241 242 243 245 246 249 251 253 255 256 258 259 261 262 262 264 265 267 269 271 272 273 275 276 278 279 280 280 282 283 283 284 286 287 287 288 288 289 290 289 288 289
239 240 242 244 245 247 248 251 253 254 256 258 259 260 261 262 264 266 266 267 269 271 272 275 275 277 279 280 280 282 283 284 285 286 287 288 288 289 289 289 290 289 289
240 241 242 245 246 247 249 250 252 254 256 258 259 260 261 262 264 265 266 268 269 270 272 274 275 276 279 281 282 283 284 285 285 286 287 288 289 290 290 290 289 290 290
241 242 243 245 247 248 249 251 252 254 256 258 259 260 261 262 264 266 267 267 268 270 271 273 275 275 277 279 281 283 284 285 285 287 287 288 288 289 290 289 289 290 290
242 242 243 245 247 248 249 251 253 254 256 258 259 260 262 263 265 266 268 268 269 270 271 273 274 275 276 278 281 282 284 285 285 286 287 288 289 290 290 289 289 289 289
243 243 244 246 247 248 249 251 252 254 256 257 259 260 262 263 265 266 267 269 270 271 271 273 274 275 277 279 282 284 284 285 285 286 286 288 289 290 290 290 290 291 290
243 243 244 246 246 247 248 249 251 253 255 257 259 260 261 263 265 266 267 269 270 271 271 273 275 275 277 278 281 282 284 284 285 287 287 288 289 289 289 290 290 290 289
244 243 244 245 246 247 248 250 251 253 256 257 259 261 262 263 264 266 268 269 270 271 272 272 274 276 277 279 280 282 283 284 285 286 287 287 288 289 289 290 289 289 289
243 244 245 246 247 247 249 250 251 254 256 257 259 261 263 264 265 266 268 269 271 271 272 273 275 276 277 278 279 281 284 284 285 286 287 287 288 289 289 289 289 290 290
243 244 245 246 247 248 249 251 253 255 256 257 259 261 262 263 265 267 269 270 272 272 273 274 274 275 276 278 279 281 283 285 286 286 287 287 288 288 289 289 290 289 289
243 244 245 246 248 249 250 252 253 255 256 257 258 260 262 264 265 267 269 271 271 272 273 274 275 276 276 278 279 281 282 284 284 285 286 287 287 288 288 289 289 288 289
243 244 246 246 247 248 249 251 253 255 255 256 258 260 262 264 265 267 269 270 272 273 273 274 275 275 276 278 279 281 282 284 284 285 286 286 287 287 288 288 288 288 288
242 244 245 246 247 248 249 251 253 254 255 256 258 260 262 264 265 267 268 270 272 273 274 275 275 277 278 278 279 280 282 283 284 285 286 286 287 288 288 289 288 288 288
242 243 244 246 248 249 249 250 252 253 254 256 258 260 262 264 266 268 269 270 272 273 274 275 275 276 277 278 280 281 282 284 285 286 286 287 288 288 289 289 288 288 288
242 244 245 246 247 248 249 250 251 253 254 256 258 261 262 265 267 268 269 270 271 272 272 274 275 276 277 278 279 281 282 284 285 286 287 288 288 288 288 288 288 287 288
242 244 245 246 247 248 249 250 252 254 255 257 259 261 264 266 267 268 268 269 270 271 273 274 274 275 276 278 279 280 282 283 285 286 287 288 288 288 287 287 287 287 287
242 244 245 246 247 248 250 251 253 255 257 259 261 262 264 266 268 268 268 269 270 272 273 273 274 275 276 277 278 280 281 283 284 285 287 288 287 287 287 286 286 286 286